START_TIME,STEP,MOV.,M6,t_acc.,M7,t_acc.,M19,t_acc.,H36,t_acc.
1981-08-24 18:00:28.130 ,1,1,0.,12.0,0.,12.0,0.,12.0,0.,12.0
1981-08-24 18:00:40.130 ,1,1,0.,12.0,0.,12.0,0.,12.0,0.,12.0
1981-08-24 18:00:52.130 ,2,1,0.,12.0,0.,12.0,0.,12.0,0.,12.0
1981-08-24 18:01:04.130 ,2,1,0.,12.0,0.,12.0,0.,12.0,0.,12.0
1981-08-24 18:01:16.130 ,3,1,0.,12.0,0.,12.0,0.,12.0,0.,12.0
1981-08-24 18:01:28.130 ,3,1,0.,12.0,0.,12.0,0.,12.0,0.,12.0
1981-08-24 18:01:40.130 ,4,1,0.,12.0,0.,12.0,0.,12.0,0.,12.0
1981-08-24 18:01:52.130 ,4,1,0.,12.0,0.,12.0,0.,12.0,0.,12.0
1981-08-24 18:02:04.130 ,5,1,0.,12.0,0.,12.0,0.,12.0,0.,12.0
1981-08-24 18:02:16.130 ,5,1,0.,12.0,0.,12.0,0.,12.0,0.,12.0
1981-08-24 18:02:28.130 ,6,1,0.,12.0,0.,12.0,0.,12.0,0.,12.0
1981-08-24 18:02:40.130 ,6,1,0.,12.0,0.,12.0,0.,12.0,0.,12.0
1981-08-24 18:02:52.130 ,7,1,0.,12.0,0.,12.0,0.,12.0,0.,12.0
1981-08-24 18:03:04.130 ,7,1,0.,12.0,0.,12.0,0.,12.0,0.,12.0
1981-08-24 18:03:16.130 ,7,1,0.,12.0,0.,12.0,0.,12.0,0.,12.0
1981-08-24 18:03:28.130 ,7,1,0.,12.0,0.,12.0,0.,12.0,0.,12.0
1981-08-24 18:03:40.130 ,7,0,0.,12.0,0.,12.0,0.,12.0,0.,12.0
1981-08-24 18:03:52.130 ,7,0,0.,12.0,0.,12.0,0.,12.0,0.,12.0
1981-08-24 18:04:04.130 ,6,1,0.,12.0,0.,12.0,0.,12.0,0.,12.0
1981-08-24 18:04:16.130 ,6,1,0.,12.0,0.,12.0,0.,12.0,0.,12.0
1981-08-24 18:04:28.130 ,6,0,0.,12.0,0.,12.0,0.,12.0,0.,12.0
1981-08-24 18:04:40.130 ,6,0,0.,12.0,0.,12.0,0.,12.0,0.,12.0
1981-08-24 18:04:52.130 ,5,1,0.,12.0,0.,12.0,0.,12.0,0.,12.0
1981-08-24 18:05:04.130 ,5,1,0.,12.0,0.,12.0,0.,12.0,0.,12.0
1981-08-24 18:05:16.130 ,5,0,0.,12.0,0.,12.0,0.,12.0,0.,12.0
1981-08-24 18:05:28.130 ,5,0,0.,12.0,0.,12.0,0.,12.0,0.,12.0
1981-08-24 18:05:40.130 ,4,1,0.,12.0,0.,12.0,0.,12.0,0.,12.0
1981-08-24 18:05:52.130 ,4,1,0.,12.0,0.,12.0,0.,12.0,0.,12.0
1981-08-24 18:06:04.130 ,4,0,0.,12.0,0.,12.0,0.,12.0,0.,12.0
1981-08-24 18:06:16.130 ,4,0,0.,12.0,0.,12.0,0.,12.0,0.,12.0
1981-08-24 18:06:28.130 ,3,1,0.,12.0,0.,12.0,0.,12.0,0.,12.0
1981-08-24 18:06:40.130 ,3,1,0.,12.0,0.,12.0,0.,12.0,0.,12.0
1981-08-24 18:06:52.130 ,3,0,0.,12.0,0.,12.0,0.,12.0,0.,12.0
1981-08-24 18:07:04.130 ,3,0,0.,12.0,0.,12.0,0.,12.0,0.,12.0
1981-08-24 18:07:16.130 ,2,1,0.,12.0,0.,12.0,0.,12.0,0.,12.0
1981-08-24 18:07:28.130 ,2,1,0.,12.0,0.,12.0,0.,12.0,0.,12.0
1981-08-24 18:07:40.130 ,2,0,0.,12.0,0.,12.0,0.,12.0,0.,12.0
1981-08-24 18:07:52.130 ,2,0,0.,12.0,0.,12.0,0.,12.0,0.,12.0
1981-08-24 18:08:04.130 ,1,1,0.,12.0,0.,12.0,0.,12.0,0.,12.0
1981-08-24 18:08:16.130 ,1,1,0.,12.0,0.,12.0,0.,12.0,0.,12.0
1981-08-24 18:08:28.130 ,1,0,0.,12.0,0.,12.0,0.,12.0,0.,12.0
1981-08-24 18:08:40.130 ,1,0,0.,12.0,0.,12.0,0.,12.0,0.,12.0
1981-08-24 18:08:52.130 ,0,1,0.,12.0,0.,12.0,0.,12.0,0.,12.0
1981-08-24 18:09:04.130 ,0,1,0.,12.0,0.,12.0,0.,12.0,0.,12.0
1981-08-24 18:09:16.130 ,0,0,0.,12.0,0.,12.0,0.,12.0,0.,12.0
1981-08-24 18:09:28.130 ,0,0,0.,12.0,0.,12.0,0.,12.0,0.,12.0
1981-08-24 18:09:40.130 ,0,1,0.,12.0,0.,12.0,0.,12.0,0.,12.0
1981-08-24 18:09:52.130 ,0,1,0.,12.0,0.,12.0,0.,12.0,0.,12.0
1981-08-24 18:10:04.130 ,0,0,0.,12.0,0.,12.0,0.,12.0,0.,12.0
1981-08-24 18:10:16.130 ,0,0,0.,12.0,0.,12.0,0.,12.0,0.,12.0
1981-08-24 18:10:28.130 ,1,1,0.,12.0,0.,12.0,0.,12.0,0.,12.0
1981-08-24 18:10:40.130 ,1,1,0.,12.0,0.,12.0,0.,12.0,0.,12.0
1981-08-24 18:10:52.130 ,1,0,0.,12.0,0.,12.0,0.,12.0,0.,12.0
1981-08-24 18:11:04.130 ,1,0,0.,12.0,0.,12.0,0.,12.0,0.,12.0
1981-08-24 18:11:16.130 ,2,1,0.,12.0,0.,12.0,0.,12.0,0.,12.0
1981-08-24 18:11:28.130 ,2,1,0.,12.0,0.,12.0,0.,12.0,0.,12.0
1981-08-24 18:11:40.130 ,2,0,0.,12.0,0.,12.0,0.,12.0,0.,12.0
1981-08-24 18:11:52.130 ,2,0,0.,12.0,0.,12.0,0.,12.0,0.,12.0
1981-08-24 18:12:04.130 ,3,1,0.,12.0,0.,12.0,0.,12.0,0.,12.0
1981-08-24 18:12:16.130 ,3,1,0.,12.0,0.,12.0,0.,12.0,0.,12.0
1981-08-24 18:12:28.130 ,3,0,0.,12.0,0.,12.0,0.,12.0,0.,12.0
1981-08-24 18:12:40.130 ,3,0,0.,12.0,0.,12.0,0.,12.0,0.,12.0
1981-08-24 18:12:52.130 ,4,1,0.,12.0,0.,12.0,0.,12.0,0.,12.0
1981-08-24 18:13:04.130 ,4,1,0.,12.0,0.,12.0,0.,12.0,0.,12.0
1981-08-24 18:13:16.130 ,4,0,0.,12.0,0.,12.0,0.,12.0,0.,12.0
1981-08-24 18:13:28.130 ,4,0,0.,12.0,0.,12.0,0.,12.0,0.,12.0
1981-08-24 18:13:40.130 ,5,1,0.,12.0,0.,12.0,0.,12.0,0.,12.0
1981-08-24 18:13:52.130 ,5,1,0.,12.0,0.,12.0,0.,12.0,0.,12.0
1981-08-24 18:14:04.130 ,5,0,0.,12.0,0.,12.0,0.,12.0,0.,12.0
1981-08-24 18:14:16.130 ,5,0,0.,12.0,0.,12.0,0.,12.0,0.,12.0
1981-08-24 18:14:28.130 ,6,1,0.,12.0,0.,12.0,0.,12.0,0.,12.0
1981-08-24 18:14:40.130 ,6,1,0.,12.0,0.,12.0,0.,12.0,0.,12.0
1981-08-24 18:14:52.130 ,6,0,0.,12.0,0.,12.0,0.,12.0,0.,12.0
1981-08-24 18:15:04.130 ,6,0,0.,12.0,0.,12.0,0.,12.0,0.,12.0
1981-08-24 18:15:16.130 ,7,1,0.,12.0,0.,12.0,0.,12.0,0.,12.0
1981-08-24 18:15:28.130 ,7,1,0.,12.0,0.,12.0,0.,12.0,0.,12.0
1981-08-24 18:15:40.130 ,7,0,0.,12.0,0.,12.0,0.,12.0,0.,12.0
1981-08-24 18:15:52.130 ,7,0,0.,12.0,0.,12.0,0.,12.0,0.,12.0
1981-08-24 18:16:04.130 ,7,1,0.,12.0,0.,12.0,0.,12.0,0.,12.0
1981-08-24 18:16:16.130 ,7,1,0.,12.0,0.,12.0,0.,12.0,0.,12.0
1981-08-24 18:16:28.130 ,6,1,0.,12.0,0.,12.0,0.,12.0,0.,12.0
1981-08-24 18:16:40.130 ,6,1,0.,12.0,0.,12.0,0.,12.0,0.,12.0
1981-08-24 18:16:52.130 ,5,1,0.,12.0,0.,12.0,0.,12.0,0.,12.0
1981-08-24 18:17:04.130 ,5,1,0.,12.0,0.,12.0,0.,12.0,0.,12.0
1981-08-24 18:17:16.130 ,4,1,0.,12.0,0.,12.0,0.,12.0,0.,12.0
1981-08-24 18:17:28.130 ,4,1,0.,12.0,0.,12.0,0.,12.0,0.,12.0
1981-08-24 18:17:40.130 ,3,1,0.,12.0,0.,12.0,0.,12.0,0.,12.0
1981-08-24 18:17:52.130 ,3,1,0.,12.0,0.,12.0,0.,12.0,0.,12.0
1981-08-24 18:18:04.130 ,2,1,0.,12.0,0.,12.0,0.,12.0,0.,12.0
1981-08-24 18:18:16.130 ,2,1,0.,12.0,0.,12.0,0.,12.0,0.,12.0
1981-08-24 18:18:28.130 ,1,1,0.,12.0,0.,12.0,0.,12.0,0.,12.0
1981-08-24 18:18:40.130 ,1,1,0.,12.0,0.,12.0,0.,12.0,0.,12.0
1981-08-24 18:18:52.130 ,0,1,0.,12.0,0.,12.0,0.,12.0,0.,12.0
1981-08-24 18:19:04.130 ,0,1,0.,12.0,0.,12.0,0.,12.0,0.,12.0
1981-08-24 18:19:16.130 ,0,1,0.,12.0,0.,12.0,0.,12.0,0.,12.0
1981-08-24 18:19:28.130 ,0,1,0.,12.0,0.,12.0,0.,12.0,0.,12.0
1981-08-24 18:19:40.130 ,1,1,0.,12.0,0.,12.0,0.,12.0,0.,12.0
1981-08-24 18:19:52.130 ,1,1,0.,12.0,0.,12.0,0.,12.0,0.,12.0
1981-08-24 18:20:04.130 ,2,1,0.,12.0,0.,12.0,0.,12.0,0.,12.0
1981-08-24 18:20:16.130 ,2,1,0.,12.0,0.,12.0,0.,12.0,0.,12.0
1981-08-24 18:20:28.130 ,3,1,0.,12.0,0.,12.0,0.,12.0,0.,12.0
1981-08-24 18:20:40.130 ,3,1,0.,12.0,0.,12.0,0.,12.0,0.,12.0
1981-08-24 18:20:52.130 ,4,1,0.,12.0,0.,12.0,0.,12.0,0.,12.0
1981-08-24 18:21:04.130 ,4,1,0.,12.0,0.,12.0,0.,12.0,0.,12.0
1981-08-24 18:21:16.130 ,5,1,0.,12.0,0.,12.0,0.,12.0,0.,12.0
1981-08-24 18:21:28.130 ,5,1,0.,12.0,0.,12.0,0.,12.0,0.,12.0
1981-08-24 18:21:40.130 ,6,1,0.,12.0,0.,12.0,0.,12.0,0.,12.0
1981-08-24 18:21:52.130 ,6,1,0.,12.0,0.,12.0,0.,12.0,0.,12.0
1981-08-24 18:22:04.130 ,7,1,0.,12.0,0.,12.0,0.,12.0,0.,12.0
1981-08-24 18:22:16.130 ,7,1,0.,12.0,0.,12.0,0.,12.0,0.,12.0
1981-08-24 18:22:28.130 ,7,1,0.,12.0,0.,12.0,0.,12.0,0.,12.0
1981-08-24 18:22:40.130 ,7,1,0.,12.0,0.,12.0,0.,12.0,0.,12.0
1981-08-24 18:22:52.130 ,7,0,0.,12.0,0.,12.0,0.,12.0,0.,12.0
1981-08-24 18:23:04.130 ,7,0,0.,12.0,0.,12.0,0.,12.0,0.,12.0
1981-08-24 18:23:16.130 ,6,1,0.,12.0,0.,12.0,0.,12.0,0.,12.0
1981-08-24 18:23:28.130 ,6,1,0.,12.0,0.,12.0,0.,12.0,0.,12.0
1981-08-24 18:23:40.130 ,6,0,0.,12.0,0.,12.0,0.,12.0,0.,12.0
1981-08-24 18:23:52.130 ,6,0,0.,12.0,0.,12.0,0.,12.0,0.,12.0
1981-08-24 18:24:04.130 ,5,1,0.,12.0,0.,12.0,0.,12.0,0.,12.0
1981-08-24 18:24:16.130 ,5,1,0.,12.0,0.,12.0,0.,12.0,0.,12.0
1981-08-24 18:24:28.130 ,5,0,0.,12.0,0.,12.0,0.,12.0,0.,12.0
1981-08-24 18:24:40.130 ,5,0,0.,12.0,0.,12.0,0.,12.0,0.,12.0
1981-08-24 18:24:52.130 ,4,1,0.,12.0,0.,12.0,0.,12.0,0.,12.0
1981-08-24 18:25:04.130 ,4,1,0.,12.0,0.,12.0,0.,12.0,0.,12.0
1981-08-24 18:25:16.130 ,4,0,0.,12.0,0.,12.0,0.,12.0,0.,12.0
1981-08-24 18:25:28.130 ,4,0,0.,12.0,0.,12.0,0.,12.0,0.,12.0
1981-08-24 18:25:40.130 ,3,1,0.,12.0,0.,12.0,0.,12.0,0.,12.0
1981-08-24 18:25:52.130 ,3,1,0.,12.0,0.,12.0,0.,12.0,0.,12.0
1981-08-24 18:26:04.130 ,3,0,0.,12.0,0.,12.0,0.,12.0,0.,12.0
1981-08-24 18:26:16.130 ,3,0,0.,12.0,0.,12.0,0.,12.0,0.,12.0
1981-08-24 18:26:28.130 ,2,1,0.,12.0,0.,12.0,0.,12.0,0.,12.0
1981-08-24 18:26:40.130 ,2,1,0.,12.0,0.,12.0,0.,12.0,0.,12.0
1981-08-24 18:26:52.130 ,2,0,0.,12.0,0.,12.0,0.,12.0,0.,12.0
1981-08-24 18:27:04.130 ,2,0,0.,12.0,0.,12.0,0.,12.0,0.,12.0
1981-08-24 18:27:16.130 ,1,1,0.,12.0,0.,12.0,0.,12.0,0.,12.0
1981-08-24 18:27:28.130 ,1,1,0.,12.0,0.,12.0,0.,12.0,0.,12.0
1981-08-24 18:27:40.130 ,1,0,0.,12.0,0.,12.0,0.,12.0,0.,12.0
1981-08-24 18:27:52.130 ,1,0,0.,12.0,0.,12.0,0.,12.0,0.,12.0
1981-08-24 18:28:04.130 ,0,1,0.,12.0,0.,12.0,0.,12.0,0.,12.0
1981-08-24 18:28:16.130 ,0,1,0.,12.0,0.,12.0,0.,12.0,0.,12.0
1981-08-24 18:28:28.130 ,0,0,0.,12.0,0.,12.0,0.,12.0,0.,12.0
1981-08-24 18:28:40.130 ,0,0,0.,12.0,0.,12.0,0.,12.0,0.,12.0
1981-08-24 18:28:52.130 ,0,1,0.,12.0,0.,12.0,0.,12.0,0.,12.0
1981-08-24 18:29:04.130 ,0,1,0.,12.0,0.,12.0,0.,12.0,0.,12.0
1981-08-24 18:29:16.130 ,0,0,0.,12.0,0.,12.0,0.,12.0,0.,12.0
1981-08-24 18:29:28.130 ,0,0,0.,12.0,0.,12.0,0.,12.0,0.,12.0
1981-08-24 18:29:40.130 ,1,1,0.,12.0,0.,12.0,0.,12.0,0.,12.0
1981-08-24 18:29:52.130 ,1,1,0.,12.0,0.,12.0,0.,12.0,0.,12.0
1981-08-24 18:30:04.130 ,1,0,0.,12.0,0.,12.0,0.,12.0,0.,12.0
1981-08-24 18:30:16.130 ,1,0,0.,12.0,0.,12.0,0.,12.0,0.,12.0
1981-08-24 18:30:28.130 ,2,1,0.,12.0,0.,12.0,0.,12.0,0.,12.0
1981-08-24 18:30:40.130 ,2,1,0.,12.0,0.,12.0,0.,12.0,0.,12.0
1981-08-24 18:30:52.130 ,2,0,0.,12.0,0.,12.0,0.,12.0,0.,12.0
1981-08-24 18:31:04.130 ,2,0,0.,12.0,0.,12.0,0.,12.0,0.,12.0
1981-08-24 18:31:16.130 ,3,1,0.,12.0,0.,12.0,0.,12.0,0.,12.0
1981-08-24 18:31:28.130 ,3,1,0.,12.0,0.,12.0,0.,12.0,0.,12.0
1981-08-24 18:31:40.130 ,3,0,0.,12.0,0.,12.0,0.,12.0,0.,12.0
1981-08-24 18:31:52.130 ,3,0,0.,12.0,0.,12.0,0.,12.0,0.,12.0
1981-08-24 18:32:04.130 ,4,1,0.,12.0,0.,12.0,0.,12.0,0.,12.0
1981-08-24 18:32:16.130 ,4,1,0.,12.0,0.,12.0,0.,12.0,0.,12.0
1981-08-24 18:32:28.130 ,4,0,0.,12.0,0.,12.0,0.,12.0,0.,12.0
1981-08-24 18:32:40.130 ,4,0,0.,12.0,0.,12.0,0.,12.0,0.,12.0
1981-08-24 18:32:52.130 ,5,1,0.,12.0,0.,12.0,0.,12.0,0.,12.0
1981-08-24 18:33:04.130 ,5,1,0.,12.0,0.,12.0,0.,12.0,0.,12.0
1981-08-24 18:33:16.130 ,5,0,0.,12.0,0.,12.0,0.,12.0,0.,12.0
1981-08-24 18:33:28.130 ,5,0,0.,12.0,0.,12.0,0.,12.0,0.,12.0
1981-08-24 18:33:40.130 ,6,1,0.,12.0,0.,12.0,0.,12.0,0.,12.0
1981-08-24 18:33:52.130 ,6,1,0.,12.0,0.,12.0,0.,12.0,0.,12.0
1981-08-24 18:34:04.130 ,6,0,0.,12.0,0.,12.0,0.,12.0,0.,12.0
1981-08-24 18:34:16.130 ,6,0,0.,12.0,0.,12.0,0.,12.0,0.,12.0
1981-08-24 18:34:28.130 ,7,1,0.,12.0,0.,12.0,0.,12.0,0.,12.0
1981-08-24 18:34:40.130 ,7,1,0.,12.0,0.,12.0,0.,12.0,0.,12.0
1981-08-24 18:34:52.130 ,7,0,0.,12.0,0.,12.0,0.,12.0,0.,12.0
1981-08-24 18:35:04.130 ,7,0,0.,12.0,0.,12.0,0.,12.0,0.,12.0
1981-08-24 18:35:16.130 ,7,1,0.,12.0,0.,12.0,0.,12.0,0.,12.0
1981-08-24 18:35:28.130 ,7,1,0.,12.0,0.,12.0,0.,12.0,0.,12.0
1981-08-24 18:35:40.130 ,6,1,0.,12.0,0.,12.0,0.,12.0,0.,12.0
1981-08-24 18:35:52.130 ,6,1,0.,12.0,0.,12.0,0.,12.0,0.,12.0
1981-08-24 18:36:04.130 ,5,1,0.,12.0,0.,12.0,0.,12.0,0.,12.0
1981-08-24 18:36:16.130 ,5,1,0.,12.0,0.,12.0,0.,12.0,0.,12.0
1981-08-24 18:36:28.130 ,4,1,0.,12.0,0.,12.0,0.,12.0,0.,12.0
1981-08-24 18:36:40.130 ,4,1,0.,12.0,0.,12.0,0.,12.0,0.,12.0
1981-08-24 18:36:52.130 ,3,1,0.,12.0,0.,12.0,0.,12.0,0.,12.0
1981-08-24 18:37:04.130 ,3,1,0.,12.0,0.,12.0,0.,12.0,0.,12.0
1981-08-24 18:37:16.130 ,2,1,0.,12.0,0.,12.0,0.,12.0,0.,12.0
1981-08-24 18:37:28.130 ,2,1,0.,12.0,0.,12.0,0.,12.0,0.,12.0
1981-08-24 18:37:40.130 ,1,1,0.,12.0,0.,12.0,0.,12.0,0.,12.0
1981-08-24 18:37:52.130 ,1,1,0.,12.0,0.,12.0,0.,12.0,0.,12.0
1981-08-24 18:38:04.130 ,0,1,0.,12.0,0.,12.0,0.,12.0,0.,12.0
1981-08-24 18:38:16.130 ,0,1,0.,12.0,0.,12.0,0.,12.0,0.,12.0
1981-08-24 18:38:28.130 ,0,1,0.,12.0,0.,12.0,0.,12.0,0.,12.0
1981-08-24 18:38:40.130 ,0,1,0.,12.0,0.,12.0,0.,12.0,0.,12.0
1981-08-24 18:38:52.130 ,1,1,0.,12.0,0.,12.0,0.,12.0,0.,12.0
1981-08-24 18:39:04.130 ,1,1,0.,12.0,0.,12.0,0.,12.0,0.,12.0
1981-08-24 18:39:16.130 ,2,1,0.,12.0,0.,12.0,0.,12.0,0.,12.0
1981-08-24 18:39:28.130 ,2,1,0.,12.0,0.,12.0,0.,12.0,0.,12.0
1981-08-24 18:39:40.130 ,3,1,0.,12.0,0.,12.0,0.,12.0,0.,12.0
1981-08-24 18:39:52.130 ,3,1,0.,12.0,0.,12.0,0.,12.0,0.,12.0
1981-08-24 18:40:04.130 ,4,1,0.,12.0,0.,12.0,0.,12.0,0.,12.0
1981-08-24 18:40:16.130 ,4,1,0.,12.0,0.,12.0,0.,12.0,0.,12.0
1981-08-24 18:40:28.130 ,5,1,0.,12.0,0.,12.0,0.,12.0,0.,12.0
1981-08-24 18:40:40.130 ,5,1,0.,12.0,0.,12.0,0.,12.0,0.,12.0
1981-08-24 18:40:52.130 ,6,1,0.,12.0,0.,12.0,0.,12.0,0.,12.0
1981-08-24 18:41:04.130 ,6,1,0.,12.0,0.,12.0,0.,12.0,0.,12.0
1981-08-24 18:41:16.130 ,7,1,0.,12.0,0.,12.0,0.,12.0,0.,12.0
1981-08-24 18:41:28.130 ,7,1,0.,12.0,0.,12.0,0.,12.0,0.,12.0
1981-08-24 18:41:40.130 ,7,1,0.,12.0,0.,12.0,0.,12.0,0.,12.0
1981-08-24 18:41:52.130 ,7,1,0.,12.0,0.,12.0,0.,12.0,0.,12.0
1981-08-24 18:42:04.130 ,7,0,0.,12.0,0.,12.0,0.,12.0,0.,12.0
1981-08-24 18:42:16.130 ,7,0,0.,12.0,0.,12.0,0.,12.0,0.,12.0
1981-08-24 18:42:28.130 ,6,1,0.,12.0,0.,12.0,0.,12.0,0.,12.0
1981-08-24 18:42:40.130 ,6,1,0.,12.0,0.,12.0,0.,12.0,0.,12.0
1981-08-24 18:42:52.130 ,6,0,0.,12.0,0.,12.0,0.,12.0,0.,12.0
1981-08-24 18:43:04.130 ,6,0,0.,12.0,0.,12.0,0.,12.0,0.,12.0
1981-08-24 18:43:16.130 ,5,1,0.,12.0,0.,12.0,0.,12.0,0.,12.0
1981-08-24 18:43:28.130 ,5,1,0.,12.0,0.,12.0,0.,12.0,0.,12.0
1981-08-24 18:43:40.130 ,5,0,0.,12.0,0.,12.0,0.,12.0,0.,12.0
1981-08-24 18:43:52.130 ,5,0,0.,12.0,0.,12.0,0.,12.0,0.,12.0
1981-08-24 18:44:04.130 ,4,1,0.,12.0,0.,12.0,0.,12.0,0.,12.0
1981-08-24 18:44:16.130 ,4,1,0.,12.0,0.,12.0,0.,12.0,0.,12.0
1981-08-24 18:44:28.130 ,4,0,0.,12.0,0.,12.0,0.,12.0,0.,12.0
1981-08-24 18:44:40.130 ,4,0,0.,12.0,0.,12.0,0.,12.0,0.,12.0
1981-08-24 18:44:52.130 ,3,1,0.,12.0,0.,12.0,0.,12.0,0.,12.0
1981-08-24 18:45:04.130 ,3,1,0.,12.0,0.,12.0,0.,12.0,0.,12.0
1981-08-24 18:45:16.130 ,3,0,0.,12.0,0.,12.0,0.,12.0,0.,12.0
1981-08-24 18:45:28.130 ,3,0,0.,12.0,0.,12.0,0.,12.0,0.,12.0
1981-08-24 18:45:40.130 ,2,1,0.,12.0,0.,12.0,0.,12.0,0.,12.0
1981-08-24 18:45:52.130 ,2,1,0.,12.0,0.,12.0,0.,12.0,0.,12.0
1981-08-24 18:46:04.130 ,2,0,0.,12.0,0.,12.0,0.,12.0,0.,12.0
1981-08-24 18:46:16.130 ,2,0,0.,12.0,0.,12.0,0.,12.0,0.,12.0
1981-08-24 18:46:28.130 ,1,1,0.,12.0,0.,12.0,0.,12.0,0.,12.0
1981-08-24 18:46:40.130 ,1,1,0.,12.0,0.,12.0,0.,12.0,0.,12.0
1981-08-24 18:46:52.130 ,1,0,0.,12.0,0.,12.0,0.,12.0,0.,12.0
1981-08-24 18:47:04.130 ,1,0,0.,12.0,0.,12.0,0.,12.0,0.,12.0
1981-08-24 18:47:16.130 ,0,1,0.,12.0,0.,12.0,0.,12.0,0.,12.0
1981-08-24 18:47:28.130 ,0,1,0.,12.0,0.,12.0,0.,12.0,0.,12.0
1981-08-24 18:47:40.130 ,0,0,0.,12.0,0.,12.0,0.,12.0,0.,12.0
1981-08-24 18:47:52.130 ,0,0,0.,12.0,0.,12.0,0.,12.0,0.,12.0
1981-08-24 18:48:04.130 ,0,1,0.,12.0,0.,12.0,0.,12.0,0.,12.0
1981-08-24 18:48:16.130 ,0,1,0.,12.0,0.,12.0,0.,12.0,0.,12.0
1981-08-24 18:48:28.130 ,0,0,0.,12.0,0.,12.0,0.,12.0,0.,12.0
1981-08-24 18:48:40.130 ,0,0,0.,12.0,0.,12.0,0.,12.0,0.,12.0
1981-08-24 18:48:52.130 ,1,1,0.,12.0,0.,12.0,0.,12.0,0.,12.0
1981-08-24 18:49:04.130 ,1,1,0.,12.0,0.,12.0,0.,12.0,0.,12.0
1981-08-24 18:49:16.130 ,1,0,0.,12.0,0.,12.0,0.,12.0,0.,12.0
1981-08-24 18:49:28.130 ,1,0,0.,12.0,0.,12.0,0.,12.0,0.,12.0
1981-08-24 18:49:40.130 ,2,1,0.,12.0,0.,12.0,0.,12.0,0.,12.0
1981-08-24 18:49:52.130 ,2,1,0.,12.0,0.,12.0,0.,12.0,0.,12.0
1981-08-24 18:50:04.130 ,2,0,0.,12.0,0.,12.0,0.,12.0,0.,12.0
1981-08-24 18:50:16.130 ,2,0,0.,12.0,0.,12.0,0.,12.0,0.,12.0
1981-08-24 18:50:28.130 ,3,1,0.,12.0,0.,12.0,0.,12.0,0.,12.0
1981-08-24 18:50:40.130 ,3,1,0.,12.0,0.,12.0,0.,12.0,0.,12.0
1981-08-24 18:50:52.130 ,3,0,0.,12.0,0.,12.0,0.,12.0,0.,12.0
1981-08-24 18:51:04.130 ,3,0,0.,12.0,0.,12.0,0.,12.0,0.,12.0
1981-08-24 18:51:16.130 ,4,1,0.,12.0,0.,12.0,0.,12.0,0.,12.0
1981-08-24 18:51:28.130 ,4,1,0.,12.0,0.,12.0,0.,12.0,0.,12.0
1981-08-24 18:51:40.130 ,4,0,0.,12.0,0.,12.0,0.,12.0,0.,12.0
1981-08-24 18:51:52.130 ,4,0,0.,12.0,0.,12.0,0.,12.0,0.,12.0
1981-08-24 18:52:04.130 ,5,1,0.,12.0,0.,12.0,0.,12.0,0.,12.0
1981-08-24 18:52:16.130 ,5,1,0.,12.0,0.,12.0,0.,12.0,0.,12.0
1981-08-24 18:52:28.130 ,5,0,0.,12.0,0.,12.0,0.,12.0,0.,12.0
1981-08-24 18:52:40.130 ,5,0,0.,12.0,0.,12.0,0.,12.0,0.,12.0
1981-08-24 18:52:52.130 ,6,1,0.,12.0,0.,12.0,0.,12.0,0.,12.0
1981-08-24 18:53:04.130 ,6,1,0.,12.0,0.,12.0,0.,12.0,0.,12.0
1981-08-24 18:53:16.130 ,6,0,0.,12.0,0.,12.0,0.,12.0,0.,12.0
1981-08-24 18:53:28.130 ,6,0,0.,12.0,0.,12.0,0.,12.0,0.,12.0
1981-08-24 18:53:40.130 ,7,1,0.,12.0,0.,12.0,0.,12.0,0.,12.0
1981-08-24 18:53:52.130 ,7,1,0.,12.0,0.,12.0,0.,12.0,0.,12.0
1981-08-24 18:54:04.130 ,7,0,0.,12.0,0.,12.0,0.,12.0,0.,12.0
1981-08-24 18:54:16.130 ,7,0,0.,12.0,0.,12.0,0.,12.0,0.,12.0
1981-08-24 18:54:28.130 ,7,1,0.,12.0,0.,12.0,0.,12.0,0.,12.0
1981-08-24 18:54:40.130 ,7,1,0.,12.0,0.,12.0,0.,12.0,0.,12.0
1981-08-24 18:54:52.130 ,6,1,0.,12.0,0.,12.0,0.,12.0,0.,12.0
1981-08-24 18:55:04.130 ,6,1,0.,12.0,0.,12.0,0.,12.0,0.,12.0
1981-08-24 18:55:16.130 ,5,1,0.,12.0,0.,12.0,0.,12.0,0.,12.0
1981-08-24 18:55:28.130 ,5,1,0.,12.0,0.,12.0,0.,12.0,0.,12.0
1981-08-24 18:55:40.130 ,4,1,0.,12.0,0.,12.0,0.,12.0,0.,12.0
1981-08-24 18:55:52.130 ,4,1,0.,12.0,0.,12.0,0.,12.0,0.,12.0
1981-08-24 18:56:04.130 ,3,1,0.,12.0,0.,12.0,0.,12.0,0.,12.0
1981-08-24 18:56:16.130 ,3,1,0.,12.0,0.,12.0,0.,12.0,0.,12.0
1981-08-24 18:56:28.130 ,2,1,0.,12.0,0.,12.0,0.,12.0,0.,12.0
1981-08-24 18:56:40.130 ,2,1,0.,12.0,0.,12.0,0.,12.0,0.,12.0
1981-08-24 18:56:52.130 ,1,1,0.,12.0,0.,12.0,0.,12.0,0.,12.0
1981-08-24 18:57:04.130 ,1,1,0.,12.0,0.,12.0,0.,12.0,0.,12.0
1981-08-24 18:57:16.130 ,0,1,0.,12.0,0.,12.0,0.,12.0,0.,12.0
1981-08-24 18:57:28.130 ,0,1,0.,12.0,0.,12.0,0.,12.0,0.,12.0
1981-08-24 18:57:40.130 ,0,1,0.,12.0,0.,12.0,0.,12.0,0.,12.0
1981-08-24 18:57:52.130 ,0,1,0.,12.0,0.,12.0,0.,12.0,0.,12.0
1981-08-24 18:58:04.130 ,1,1,0.,12.0,0.,12.0,0.,12.0,0.,12.0
1981-08-24 18:58:16.130 ,1,1,0.,12.0,0.,12.0,0.,12.0,0.,12.0
1981-08-24 18:58:28.130 ,2,1,0.,12.0,0.,12.0,0.,12.0,0.,12.0
1981-08-24 18:58:40.130 ,2,1,0.,12.0,0.,12.0,0.,12.0,0.,12.0
1981-08-24 18:58:52.130 ,3,1,0.,12.0,0.,12.0,0.,12.0,0.,12.0
1981-08-24 18:59:04.130 ,3,1,0.,12.0,0.,12.0,0.,12.0,0.,12.0
1981-08-24 18:59:16.130 ,4,1,0.,12.0,0.,12.0,0.,12.0,0.,12.0
1981-08-24 18:59:28.130 ,4,1,0.,12.0,0.,12.0,0.,12.0,0.,12.0
1981-08-24 18:59:40.130 ,5,1,0.,12.0,0.,12.0,0.,12.0,0.,12.0
1981-08-24 18:59:52.130 ,5,1,0.,12.0,0.,12.0,0.,12.0,0.,12.0
1981-08-24 19:00:04.130 ,6,1,0.,12.0,0.,12.0,0.,12.0,0.,12.0
1981-08-24 19:00:16.130 ,6,1,0.,12.0,0.,12.0,0.,12.0,0.,12.0
1981-08-24 19:00:28.130 ,7,1,0.,12.0,0.,12.0,0.,12.0,0.,12.0
1981-08-24 19:00:40.130 ,7,1,0.,12.0,0.,12.0,0.,12.0,0.,12.0
1981-08-24 19:00:52.130 ,7,1,0.,12.0,0.,12.0,0.,12.0,0.,12.0
1981-08-24 19:01:04.130 ,7,1,0.,12.0,0.,12.0,0.,12.0,0.,12.0
1981-08-24 19:01:16.130 ,7,0,0.,12.0,0.,12.0,0.,12.0,0.,12.0
1981-08-24 19:01:28.130 ,7,0,0.,12.0,0.,12.0,0.,12.0,0.,12.0
1981-08-24 19:01:40.130 ,6,1,0.,12.0,0.,12.0,0.,12.0,0.,12.0
1981-08-24 19:01:52.130 ,6,1,0.,12.0,0.,12.0,0.,12.0,0.,12.0
1981-08-24 19:02:04.130 ,6,0,0.,12.0,0.,12.0,0.,12.0,0.,12.0
1981-08-24 19:02:16.130 ,6,0,0.,12.0,0.,12.0,0.,12.0,0.,12.0
1981-08-24 19:02:28.130 ,5,1,0.,12.0,0.,12.0,0.,12.0,0.,12.0
1981-08-24 19:02:40.130 ,5,1,0.,12.0,0.,12.0,0.,12.0,0.,12.0
1981-08-24 19:02:52.130 ,5,0,0.,12.0,0.,12.0,0.,12.0,0.,12.0
1981-08-24 19:03:04.130 ,5,0,0.,12.0,0.,12.0,0.,12.0,0.,12.0
1981-08-24 19:03:16.130 ,4,1,0.,12.0,0.,12.0,0.,12.0,0.,12.0
1981-08-24 19:03:28.130 ,4,1,0.,12.0,0.,12.0,0.,12.0,0.,12.0
1981-08-24 19:03:40.130 ,4,0,0.,12.0,0.,12.0,0.,12.0,0.,12.0
1981-08-24 19:03:52.130 ,4,0,0.,12.0,0.,12.0,0.,12.0,0.,12.0
1981-08-24 19:04:04.130 ,3,1,0.,12.0,0.,12.0,0.,12.0,0.,12.0
1981-08-24 19:04:16.130 ,3,1,0.,12.0,0.,12.0,0.,12.0,0.,12.0
1981-08-24 19:04:28.130 ,3,0,0.,12.0,0.,12.0,0.,12.0,0.,12.0
1981-08-24 19:04:40.130 ,3,0,0.,12.0,0.,12.0,0.,12.0,0.,12.0
1981-08-24 19:04:52.130 ,2,1,0.,12.0,0.,12.0,0.,12.0,0.,12.0
1981-08-24 19:05:04.130 ,2,1,0.,12.0,0.,12.0,0.,12.0,0.,12.0
1981-08-24 19:05:16.130 ,2,0,0.,12.0,0.,12.0,0.,12.0,0.,12.0
1981-08-24 19:05:28.130 ,2,0,0.,12.0,0.,12.0,0.,12.0,0.,12.0
1981-08-24 19:05:40.130 ,1,1,0.,12.0,0.,12.0,0.,12.0,0.,12.0
1981-08-24 19:05:52.130 ,1,1,0.,12.0,0.,12.0,0.,12.0,0.,12.0
1981-08-24 19:06:04.130 ,1,0,0.,12.0,0.,12.0,0.,12.0,0.,12.0
1981-08-24 19:06:16.130 ,1,0,0.,12.0,0.,12.0,0.,12.0,0.,12.0
1981-08-24 19:06:28.130 ,0,1,0.,12.0,0.,12.0,0.,12.0,0.,12.0
1981-08-24 19:06:40.130 ,0,1,0.,12.0,0.,12.0,0.,12.0,0.,12.0
1981-08-24 19:06:52.130 ,0,0,0.,12.0,0.,12.0,0.,12.0,0.,12.0
1981-08-24 19:07:04.130 ,0,0,0.,12.0,0.,12.0,0.,12.0,0.,12.0
1981-08-24 19:07:16.130 ,0,1,0.,12.0,0.,12.0,0.,12.0,0.,12.0
1981-08-24 19:07:28.130 ,0,1,0.,12.0,0.,12.0,0.,12.0,0.,12.0
1981-08-24 19:07:40.130 ,0,0,0.,12.0,0.,12.0,0.,12.0,0.,12.0
1981-08-24 19:07:52.130 ,0,0,0.,12.0,0.,12.0,0.,12.0,0.,12.0
1981-08-24 19:08:04.130 ,1,1,0.,12.0,0.,12.0,0.,12.0,0.,12.0
1981-08-24 19:08:16.130 ,1,1,0.,12.0,0.,12.0,0.,12.0,0.,12.0
1981-08-24 19:08:28.130 ,1,0,0.,12.0,0.,12.0,0.,12.0,0.,12.0
1981-08-24 19:08:40.130 ,1,0,0.,12.0,0.,12.0,0.,12.0,0.,12.0
1981-08-24 19:08:52.130 ,2,1,0.,12.0,0.,12.0,0.,12.0,0.,12.0
1981-08-24 19:09:04.130 ,2,1,0.,12.0,0.,12.0,0.,12.0,0.,12.0
1981-08-24 19:09:16.130 ,2,0,0.,12.0,0.,12.0,0.,12.0,0.,12.0
1981-08-24 19:09:28.130 ,2,0,0.,12.0,0.,12.0,0.,12.0,0.,12.0
1981-08-24 19:09:40.130 ,3,1,0.,12.0,0.,12.0,0.,12.0,0.,12.0
1981-08-24 19:09:52.130 ,3,1,0.,12.0,0.,12.0,0.,12.0,0.,12.0
1981-08-24 19:10:04.130 ,3,0,0.,12.0,0.,12.0,0.,12.0,0.,12.0
1981-08-24 19:10:16.130 ,3,0,0.,12.0,0.,12.0,0.,12.0,0.,12.0
1981-08-24 19:10:28.130 ,4,1,0.,12.0,0.,12.0,0.,12.0,0.,12.0
1981-08-24 19:10:40.130 ,4,1,0.,12.0,0.,12.0,0.,12.0,0.,12.0
1981-08-24 19:10:52.130 ,4,0,0.,12.0,0.,12.0,0.,12.0,0.,12.0
1981-08-24 19:11:04.130 ,4,0,0.,12.0,0.,12.0,0.,12.0,0.,12.0
1981-08-24 19:11:16.130 ,5,1,0.,12.0,0.,12.0,0.,12.0,0.,12.0
1981-08-24 19:11:28.130 ,5,1,0.,12.0,0.,12.0,0.,12.0,0.,12.0
1981-08-24 19:11:40.130 ,5,0,0.,12.0,0.,12.0,0.,12.0,0.,12.0
1981-08-24 19:11:52.130 ,5,0,0.,12.0,0.,12.0,0.,12.0,0.,12.0
1981-08-24 19:12:04.130 ,6,1,0.,12.0,0.,12.0,0.,12.0,0.,12.0
1981-08-24 19:12:16.130 ,6,1,0.,12.0,0.,12.0,0.,12.0,0.,12.0
1981-08-24 19:12:28.130 ,6,0,0.,12.0,0.,12.0,0.,12.0,0.,12.0
1981-08-24 19:12:40.130 ,6,0,0.,12.0,0.,12.0,0.,12.0,0.,12.0
1981-08-24 19:12:52.130 ,7,1,0.,12.0,0.,12.0,0.,12.0,0.,12.0
1981-08-24 19:13:04.130 ,7,1,0.,12.0,0.,12.0,0.,12.0,0.,12.0
1981-08-24 19:13:16.130 ,7,0,0.,12.0,0.,12.0,0.,12.0,0.,12.0
1981-08-24 19:13:28.130 ,7,0,0.,12.0,0.,12.0,0.,12.0,0.,12.0
1981-08-24 19:13:40.130 ,7,1,0.,12.0,0.,12.0,0.,12.0,0.,12.0
1981-08-24 19:13:52.130 ,7,1,0.,12.0,0.,12.0,0.,12.0,0.,12.0
1981-08-24 19:14:04.130 ,6,1,0.,12.0,0.,12.0,0.,12.0,0.,12.0
1981-08-24 19:14:16.130 ,6,1,0.,12.0,0.,12.0,0.,12.0,0.,12.0
1981-08-24 19:14:28.130 ,5,1,0.,12.0,0.,12.0,0.,12.0,0.,12.0
1981-08-24 19:14:40.130 ,5,1,0.,12.0,0.,12.0,0.,12.0,0.,12.0
1981-08-24 19:14:52.130 ,4,1,0.,12.0,0.,12.0,0.,12.0,0.,12.0
1981-08-24 19:15:04.130 ,4,1,0.,12.0,0.,12.0,0.,12.0,0.,12.0
1981-08-24 19:15:16.130 ,3,1,0.,12.0,0.,12.0,0.,12.0,0.,12.0
1981-08-24 19:15:28.130 ,3,1,0.,12.0,0.,12.0,0.,12.0,0.,12.0
1981-08-24 19:15:40.130 ,2,1,0.,12.0,0.,12.0,0.,12.0,0.,12.0
1981-08-24 19:15:52.130 ,2,1,0.,12.0,0.,12.0,0.,12.0,0.,12.0
1981-08-24 19:16:04.130 ,1,1,0.,12.0,0.,12.0,0.,12.0,0.,12.0
1981-08-24 19:16:16.130 ,1,1,0.,12.0,0.,12.0,0.,12.0,0.,12.0
1981-08-24 19:16:28.130 ,0,1,0.,12.0,0.,12.0,0.,12.0,0.,12.0
1981-08-24 19:16:40.130 ,0,1,0.,12.0,0.,12.0,0.,12.0,0.,12.0
1981-08-24 19:16:52.130 ,0,0,0.,12.0,0.,12.0,0.,12.0,0.,12.0
1981-08-24 19:17:04.130 ,0,0,0.,12.0,0.,12.0,0.,12.0,0.,12.0
1981-08-24 19:17:16.130 ,1,1,0.,12.0,0.,12.0,0.,12.0,0.,12.0
1981-08-24 19:17:28.130 ,1,1,0.,12.0,0.,12.0,0.,12.0,0.,12.0